Time,TemperatureF,DewpointF,PressureIn,WindDirection,WindDirectionDegrees,WindSpeedMPH,WindSpeedGustMPH,Humidity,HourlyPrecipIn,Conditions,Clouds,dailyrainin,SoftwareType,DateUTC
2013-01-29 00:22:00,33.0,32.0,-100.00,East,95,2.0,7.0,99,0.00,,,0.00,,2013-01-29 00:22:00,
2013-01-29 00:32:00,33.0,32.0,-100.00,East,85,2.0,7.0,99,0.00,,,0.00,,2013-01-29 00:32:00,
2013-01-29 00:42:00,33.0,32.0,-100.00,ENE,75,2.0,7.0,99,0.00,,,0.00,,2013-01-29 00:42:00,
2013-01-29 00:52:00,33.0,32.0,-100.00,ENE,75,2.0,9.0,99,0.00,,,0.00,,2013-01-29 00:52:00,
2013-01-29 01:02:00,32.0,32.0,-100.00,ESE,105,6.0,10.0,99,0.00,,,0.00,,2013-01-29 01:02:00,
2013-01-29 01:11:00,32.0,32.0,-100.00,SSE,150,6.0,10.0,99,0.00,,,0.00,,2013-01-29 01:11:00,
2013-01-29 01:22:00,32.0,32.0,-100.00,ESE,120,4.0,9.0,99,0.00,,,0.00,,2013-01-29 01:22:00,
2013-01-29 01:32:00,32.0,32.0,-100.00,East,95,3.0,8.0,99,0.00,,,0.00,,2013-01-29 01:32:00,
2013-01-29 01:42:00,32.0,32.0,-100.00,SE,125,3.0,11.0,99,0.00,,,0.00,,2013-01-29 01:42:00,
2013-01-29 07:21:00,32.0,32.0,-100.00,NE,45,3.0,5.0,99,0.00,,,0.00,,2013-01-29 07:21:00,
2013-01-29 07:31:00,32.0,32.0,-100.00,NE,35,2.0,4.0,99,0.00,,,0.00,,2013-01-29 07:31:00,
2013-01-29 07:41:00,32.0,32.0,-100.00,NNE,30,1.0,3.0,99,0.00,,,0.00,,2013-01-29 07:41:00,
2013-01-29 07:52:00,32.0,32.0,-100.00,NE,40,2.0,4.0,99,0.00,,,0.00,,2013-01-29 07:52:00,
2013-01-29 08:02:00,32.0,32.0,-100.00,North,0,2.0,3.0,99,0.00,,,0.00,,2013-01-29 08:02:00,
2013-01-29 08:11:00,32.0,32.0,-100.00,NNE,20,2.0,3.0,99,0.00,,,0.00,,2013-01-29 08:11:00,
2013-01-29 08:21:00,32.0,32.0,-100.00,NNE,15,2.0,4.0,99,0.00,,,0.00,,2013-01-29 08:21:00,
2013-01-29 08:31:00,32.0,32.0,-100.00,North,10,2.0,3.0,99,0.00,,,0.00,,2013-01-29 08:31:00,
2013-01-29 08:41:00,32.0,32.0,-100.00,North,10,2.0,4.0,99,0.00,,,0.00,,2013-01-29 08:41:00,
2013-01-29 08:52:00,32.0,32.0,-100.00,NE,40,2.0,4.0,99,0.00,,,0.00,,2013-01-29 08:52:00,
2013-01-29 09:01:00,32.0,32.0,-100.00,NNE,30,4.0,5.0,99,0.00,,,0.00,,2013-01-29 09:01:00,
2013-01-29 09:11:00,32.0,32.0,-100.00,North,355,1.0,2.0,99,0.00,,,0.00,,2013-01-29 09:11:00,
2013-01-29 09:21:00,32.0,32.0,-100.00,North,10,4.0,7.0,99,0.00,,,0.00,,2013-01-29 09:21:00,
2013-01-29 09:31:00,32.0,32.0,-100.00,North,350,1.0,6.0,99,0.00,,,0.00,,2013-01-29 09:31:00,
2013-01-29 09:42:00,32.0,32.0,-100.00,North,0,1.0,4.0,99,0.00,,,0.00,,2013-01-29 09:42:00,
2013-01-29 09:51:00,32.0,32.0,-100.00,NNE,15,2.0,4.0,99,0.00,,,0.00,,2013-01-29 09:51:00,
2013-01-29 10:01:00,32.0,32.0,-100.00,North,5,4.0,4.0,99,0.00,,,0.00,,2013-01-29 10:01:00,
2013-01-29 10:11:00,32.0,32.0,-100.00,NNE,25,2.0,4.0,99,0.00,,,0.00,,2013-01-29 10:11:00,
2013-01-29 10:21:00,32.0,32.0,-100.00,North,0,2.0,4.0,99,0.00,,,0.00,,2013-01-29 10:21:00,
2013-01-29 14:43:00,32.0,32.0,-100.00,South,190,1.0,4.0,99,0.00,,,0.00,,2013-01-29 14:43:00,
2013-01-29 14:52:00,32.0,32.0,-100.00,NW,315,1.0,4.0,99,0.00,,,0.00,,2013-01-29 14:52:00,
2013-01-29 15:02:00,32.0,32.0,-100.00,NNW,330,1.0,4.0,99,0.00,,,0.00,,2013-01-29 15:02:00,
2013-01-29 15:12:00,32.0,32.0,-100.00,SW,215,1.0,4.0,99,0.00,,,0.00,,2013-01-29 15:12:00,
2013-01-29 15:22:00,32.0,32.0,-100.00,NNE,25,1.0,6.0,99,0.00,,,0.00,,2013-01-29 15:22:00,
2013-01-29 15:33:00,32.0,32.0,-100.00,North,10,1.0,3.0,99,0.00,,,0.00,,2013-01-29 15:33:00,
2013-01-29 15:42:00,32.0,32.0,-100.00,North,355,2.0,6.0,99,0.00,,,0.00,,2013-01-29 15:42:00,
2013-01-29 15:52:00,33.0,32.0,-100.00,North,10,1.0,8.0,99,0.00,,,0.00,,2013-01-29 15:52:00,
2013-01-29 16:02:00,33.0,32.0,-100.00,NNW,340,4.0,10.0,99,0.00,,,0.00,,2013-01-29 16:02:00,
2013-01-29 16:12:00,33.0,32.0,-100.00,NW,310,2.0,8.0,99,0.00,,,0.00,,2013-01-29 16:12:00,
2013-01-29 17:42:00,34.0,34.0,-100.00,North,0,2.0,7.0,99,0.00,,,0.00,,2013-01-29 17:42:00,
2013-01-29 17:52:00,34.0,34.0,-100.00,North,10,0.0,7.0,99,0.00,,,0.00,,2013-01-29 17:52:00,
2013-01-29 18:12:00,35.0,34.0,-100.00,North,5,3.0,7.0,95,0.00,,,0.00,,2013-01-29 18:12:00,
2013-01-29 18:22:00,35.0,32.0,-100.00,North,5,3.0,9.0,92,0.00,,,0.00,,2013-01-29 18:22:00,
2013-01-29 18:33:00,35.0,34.0,-100.00,North,0,2.0,5.0,90,0.00,,,0.00,,2013-01-29 18:33:00,
2013-01-29 18:42:00,35.0,32.0,-100.00,North,0,3.0,6.0,88,0.00,,,0.00,,2013-01-29 18:42:00,
2013-01-29 18:51:00,35.0,32.0,-100.00,North,350,3.0,9.0,87,0.00,,,0.00,,2013-01-29 18:51:00,
2013-01-29 19:02:00,35.0,32.0,-100.00,North,0,2.0,10.0,86,0.00,,,0.00,,2013-01-29 19:02:00,
2013-01-29 19:12:00,35.0,30.0,-100.00,North,0,5.0,12.0,85,0.00,,,0.00,,2013-01-29 19:12:00,
2013-01-29 19:22:00,36.0,32.0,-100.00,WNW,300,2.0,7.0,84,0.00,,,0.00,,2013-01-29 19:22:00,
2013-01-29 19:32:00,36.0,30.0,-100.00,NNW,345,3.0,7.0,83,0.00,,,0.00,,2013-01-29 19:32:00,
2013-01-29 19:42:00,36.0,30.0,-100.00,North,0,3.0,7.0,82,0.00,,,0.00,,2013-01-29 19:42:00,
2013-01-29 19:52:00,36.0,30.0,-100.00,North,0,4.0,9.0,81,0.00,,,0.00,,2013-01-29 19:52:00,
2013-01-29 20:02:00,36.0,30.0,-100.00,North,0,5.0,10.0,80,0.00,,,0.00,,2013-01-29 20:02:00,
2013-01-29 20:12:00,36.0,30.0,-100.00,North,0,6.0,15.0,80,0.00,,,0.00,,2013-01-29 20:12:00,
2013-01-29 20:22:00,36.0,30.0,-100.00,North,5,6.0,13.0,79,0.00,,,0.00,,2013-01-29 20:22:00,
2013-01-29 20:33:00,35.0,30.0,-100.00,North,5,4.0,13.0,79,0.00,,,0.00,,2013-01-29 20:33:00,
2013-01-29 20:42:00,35.0,30.0,-100.00,North,5,3.0,10.0,79,0.00,,,0.00,,2013-01-29 20:42:00,
2013-01-29 20:53:00,35.0,30.0,-100.00,North,10,5.0,11.0,79,0.00,,,0.00,,2013-01-29 20:53:00,
2013-01-29 21:03:00,35.0,28.0,-100.00,North,0,7.0,14.0,77,0.00,,,0.00,,2013-01-29 21:03:00,
2013-01-29 21:12:00,35.0,28.0,-100.00,North,5,4.0,14.0,77,0.00,,,0.00,,2013-01-29 21:12:00,
2013-01-29 21:22:00,36.0,28.0,-100.00,North,355,3.0,9.0,76,0.00,,,0.00,,2013-01-29 21:22:00,
2013-01-29 21:33:00,35.0,28.0,-100.00,North,0,7.0,11.0,76,0.00,,,0.00,,2013-01-29 21:33:00,
2013-01-29 21:42:00,35.0,28.0,-100.00,North,350,4.0,10.0,77,0.00,,,0.00,,2013-01-29 21:42:00,
2013-01-29 21:52:00,35.0,28.0,-100.00,North,350,2.0,9.0,77,0.00,,,0.00,,2013-01-29 21:52:00,
2013-01-29 22:02:00,35.0,28.0,-100.00,North,5,7.0,10.0,78,0.00,,,0.00,,2013-01-29 22:02:00,
2013-01-29 22:12:00,35.0,28.0,-100.00,North,0,4.0,9.0,79,0.00,,,0.00,,2013-01-29 22:12:00,
2013-01-29 22:22:00,34.0,28.0,-100.00,North,5,6.0,12.0,80,0.00,,,0.00,,2013-01-29 22:22:00,
2013-01-29 22:33:00,34.0,28.0,-100.00,NNE,20,6.0,10.0,79,0.00,,,0.00,,2013-01-29 22:33:00,
2013-01-29 22:42:00,34.0,28.0,-100.00,North,5,4.0,12.0,79,0.00,,,0.00,,2013-01-29 22:42:00,
2013-01-29 22:52:00,34.0,28.0,-100.00,North,0,3.0,10.0,79,0.00,,,0.00,,2013-01-29 22:52:00,
2013-01-29 23:02:00,34.0,28.0,-100.00,North,0,1.0,12.0,79,0.00,,,0.00,,2013-01-29 23:02:00,
2013-01-29 23:12:00,34.0,28.0,-100.00,NNW,330,2.0,10.0,79,0.00,,,0.00,,2013-01-29 23:12:00,
2013-01-29 23:22:00,33.0,28.0,-100.00,North,355,4.0,14.0,79,0.00,,,0.00,,2013-01-29 23:22:00,
2013-01-29 23:32:00,33.0,28.0,-100.00,North,350,3.0,9.0,80,0.00,,,0.00,,2013-01-29 23:32:00,
2013-01-29 23:42:00,33.0,28.0,-100.00,North,0,4.0,11.0,80,0.00,,,0.00,,2013-01-29 23:42:00,
2013-01-29 23:52:00,33.0,27.0,-100.00,North,0,6.0,12.0,79,0.00,,,0.00,,2013-01-29 23:52:00,